Flag for U.S.A. Weather past 2 weeks in Fayetteville, North Carolina, U.S.A.

Now
39 °F

Overcast.


Feels Like: 37 °F
Forecast: 34 / 51 °F
Wind: 3 mph from North

Location: Fayetteville Regional Airport

Current Time: Dec 19, 2014 at 4:46:00 AM

Latest Report: Dec 19, 2014 at 3:53 AM


Visibility: 10 mi

Pressure: 30.09 "Hg

Humidity: 89%

Dew point: 36 °F

Location of FayettevilleLocation

Historic Weather in Fayetteville — Graph

°F

Fayetteville temperature yesterday

Maximum temperature yesterday: 54 °F (at 2:53 PM)
Minimum temperature yesterday: 37 °F (at 4:53 AM)
Average temperature yesterday: 44 °F

Past Weeks' High & Low Weather Summary

 TemperatureHumidityPressure
High63 °F (Dec 13, 2:53 PM)100% (Dec 16, 4:53 AM)30.44 "Hg (Dec 16, 4:53 AM)
Low27 °F (Dec 11, 6:53 AM)18% (Dec 12, 12:53 PM)29.87 "Hg (Dec 16, 3:53 PM)
Average46 °F69%30.12 "Hg
* Reported Dec 4 2:53 AM — Dec 19 2:53 AM, Fayetteville, Weather by CustomWeather, © 2014

Note: Actual official high and low records may vary slightly from our data, if they occured in-between our weather recording intervals... More about our weather records

Advertising

Fayetteville weather history for previous 24 hours

 ConditionsComfort  
Time TempWeatherWind HumidityBarometerVisibility
2:53 AM
Dec 19
39 °FOvercast.3 mph89%30.09 "Hg10 mi
1:53 AM39 °FPassing clouds.No wind82%30.08 "Hg9 mi
12:53 AM40 °FPassing clouds.3 mph86%30.08 "Hg10 mi
11:53 PM
Dec 18
42 °FOvercast.No wind79%30.09 "Hg10 mi
10:53 PM42 °FOvercast.No wind76%30.10 "Hg10 mi
9:53 PM39 °FPassing clouds.No wind79%30.09 "Hg10 mi
8:53 PM40 °FClear.3 mph73%30.09 "Hg10 mi
7:53 PM43 °FClear.No wind71%30.09 "Hg10 mi
6:53 PM43 °FClear.No wind71%30.09 "Hg10 mi
5:53 PM47 °FClear.No wind59%30.08 "Hg10 mi
4:53 PM52 °FSunny.No wind38%30.07 "Hg10 mi
3:53 PM53 °FSunny.No wind35%30.07 "Hg10 mi
2:53 PM54 °FPassing clouds.No wind35%30.06 "Hg10 mi
1:53 PM51 °FSunny.No wind41%30.09 "Hg10 mi
12:53 PM51 °FSunny.No wind38%30.11 "Hg10 mi
11:53 AM49 °FSunny.5 mph43%30.14 "Hg10 mi
10:53 AM47 °FSunny.5 mph50%30.17 "Hg10 mi
9:53 AM45 °FSunny.7 mph56%30.18 "Hg10 mi
8:53 AM43 °FSunny.7 mph68%30.17 "Hg8 mi
7:53 AM38 °FSunny.5 mph79%30.14 "Hg10 mi
6:53 AM38 °FClear.3 mph83%30.14 "Hg10 mi
5:53 AM38 °FClear.6 mph86%30.11 "Hg10 mi
4:53 AM37 °FClear.5 mph93%30.09 "Hg10 mi
Weather by CustomWeather, © 2014

See weather overviewHow to use our weather pages